Grosse Ile, MI

3:53 PM EDT on September 21, 2017 (GMT -0400)
Grosse Ile Municipal

Weather History for KONZ - May, 2014

Change the Weather History Date:

Friday, May 9, 2014

  Actual Average (KDTW) Record (KDTW)
Temperature  
Mean Temperature 65 °F -  
Max Temperature 73 °F 67 °F 90 °F (1896)
Min Temperature 57 °F 46 °F 29 °F (1983)
Growing Degree Days 15 (Base 50)    
Moisture  
Dew Point 56 °F    
Average Humidity 79    
Maximum Humidity 94    
Minimum Humidity 57    
Precipitation  
Precipitation 0.04 in - - ()
Sea Level Pressure  
Sea Level Pressure 29.81 in    
Wind  
Wind Speed 10 mph (South)    
Max Wind Speed 22 mph    
Max Gust Speed 38 mph    
Visibility 10 miles    
Events Rain    
Averages and records for this station are not official NWS values.
T = Trace of Precipitation, MM = Missing Value Source: NWS Daily Summary

Daily Weather History Graph

Daily Weather History Graph

Search for Another Location

Airport or City:

Trip Planner

Search our weather history database for the weather conditions in past years. The results will help you decide how hot, cold, wet, or windy it might be!

Date:

Astronomy

May. 09, 2014 Rise Set
Actual Time 6:18 AM EDT 8:40 PM EDT
Civil Twilight 5:47 AM EDT 9:11 PM EDT
Nautical Twilight 5:08 AM EDT 9:50 PM EDT
Astronomical Twilight 4:25 AM EDT 10:34 PM EDT
Moon 3:31 PM EDT (5/9) 3:25 AM EDT (5/9)
Length of Visible Light 15h 24m
Length of Day
14h 22m
Waxing Gibbous, 73% of the Moon is Illuminated
May 9
Waxing Gibbous
May 14
Full
May 21
Last Quarter
May 28
New
Jun 5
First Quarter

Hourly Weather History & Observations

Time (EDT) Temp. Dew Point Humidity Pressure Visibility Wind Dir Wind Speed Gust Speed Precip Events Conditions
12:14 AM 64.4 °F 57.2 °F 77% 29.91 in 10.0 mi South 10.4 mph - N/A   Clear
12:34 AM 62.6 °F 57.2 °F 82% 29.91 in 10.0 mi South 11.5 mph - N/A   Clear
12:54 AM 62.6 °F 57.2 °F 82% 29.91 in 10.0 mi South 11.5 mph - N/A   Clear
1:14 AM 60.8 °F 55.4 °F 82% 29.91 in 10.0 mi South 9.2 mph - N/A   Clear
1:34 AM 62.6 °F 57.2 °F 82% 29.90 in 10.0 mi South 9.2 mph - N/A   Clear
1:54 AM 60.8 °F 55.4 °F 82% 29.89 in 10.0 mi South 8.1 mph - N/A   Clear
2:14 AM 60.8 °F 55.4 °F 82% 29.89 in 10.0 mi South 8.1 mph - N/A   Clear
2:34 AM 60.8 °F 55.4 °F 82% 29.88 in 10.0 mi South 8.1 mph - N/A   Clear
2:54 AM 59.0 °F 55.4 °F 88% 29.88 in 10.0 mi South 6.9 mph - N/A   Clear
3:14 AM 60.8 °F 55.4 °F 82% 29.88 in 10.0 mi South 6.9 mph - N/A   Clear
3:34 AM 60.8 °F 55.4 °F 82% 29.88 in 10.0 mi South 6.9 mph - N/A   Clear
3:54 AM 59.0 °F 55.4 °F 88% 29.88 in 10.0 mi South 8.1 mph - N/A   Clear
4:15 AM 60.8 °F 55.4 °F 82% 29.87 in 10.0 mi South 8.1 mph - N/A   Clear
4:34 AM 60.8 °F 55.4 °F 82% 29.87 in 10.0 mi South 9.2 mph - N/A   Clear
5:14 AM 59.0 °F 53.6 °F 82% 29.86 in 10.0 mi South 9.2 mph - N/A   Clear
5:34 AM 59.0 °F 53.6 °F 82% 29.86 in 10.0 mi South 8.1 mph - N/A   Clear
5:54 AM 59.0 °F 53.6 °F 82% 29.87 in 10.0 mi South 8.1 mph - N/A   Scattered Clouds
6:14 AM 60.8 °F 53.6 °F 77% 29.86 in 10.0 mi South 9.2 mph - N/A   Scattered Clouds
6:34 AM 57.2 °F 53.6 °F 88% 29.86 in 10.0 mi South 5.8 mph - N/A   Clear
6:54 AM 57.2 °F 53.6 °F 88% 29.86 in 10.0 mi South 6.9 mph - N/A   Clear
7:14 AM 57.2 °F 53.6 °F 88% 29.86 in 10.0 mi South 5.8 mph - N/A   Clear
7:34 AM 57.2 °F 53.6 °F 88% 29.87 in 10.0 mi South 6.9 mph - N/A   Clear
8:14 AM 60.8 °F 55.4 °F 82% 29.86 in 10.0 mi South 6.9 mph - N/A   Clear
8:34 AM 62.6 °F 55.4 °F 77% 29.86 in 10.0 mi South 10.4 mph - N/A   Clear
8:54 AM 60.8 °F 53.6 °F 77% 29.86 in 10.0 mi South 9.2 mph - N/A   Scattered Clouds
9:14 AM 60.8 °F 55.4 °F 82% 29.87 in 10.0 mi South 8.1 mph - N/A   Overcast
9:34 AM 62.6 °F 55.4 °F 77% 29.87 in 10.0 mi South 11.5 mph - N/A   Scattered Clouds
9:54 AM 62.6 °F 55.4 °F 77% 29.87 in 10.0 mi South 10.4 mph - N/A   Clear
10:14 AM 64.4 °F 57.2 °F 77% 29.85 in 10.0 mi South 10.4 mph - N/A   Clear
10:34 AM 62.6 °F 55.4 °F 77% 29.85 in 10.0 mi South 8.1 mph - N/A   Clear
10:54 AM 60.8 °F 55.4 °F 82% 29.85 in 10.0 mi South 6.9 mph - N/A   Clear
11:14 AM 62.6 °F 55.4 °F 77% 29.84 in 10.0 mi South 6.9 mph - N/A   Clear
11:34 AM 66.2 °F 55.4 °F 68% 29.83 in 10.0 mi South 9.2 mph - N/A   Clear
11:54 AM 64.4 °F 55.4 °F 73% 29.82 in 10.0 mi South 6.9 mph - N/A   Clear
12:14 PM 66.2 °F 57.2 °F 73% 29.81 in 10.0 mi South 8.1 mph - N/A   Clear
12:34 PM 66.2 °F 57.2 °F 73% 29.79 in 10.0 mi South 8.1 mph - N/A   Clear
12:54 PM 62.6 °F 55.4 °F 77% 29.79 in 10.0 mi South 6.9 mph - N/A Rain Light Rain
1:14 PM 62.6 °F 55.4 °F 77% 29.78 in 10.0 mi South 10.4 mph - N/A   Mostly Cloudy
1:34 PM 64.4 °F 57.2 °F 77% 29.77 in 10.0 mi South 13.8 mph 17.3 mph N/A   Mostly Cloudy
1:54 PM 66.2 °F 57.2 °F 73% 29.76 in 10.0 mi South 12.7 mph - N/A Rain Light Rain
2:14 PM 66.2 °F 57.2 °F 73% 29.76 in 10.0 mi South 11.5 mph - N/A   Mostly Cloudy
2:34 PM 66.2 °F 57.2 °F 73% 29.76 in 10.0 mi South 15.0 mph - N/A   Mostly Cloudy
2:54 PM 66.2 °F 57.2 °F 73% 29.77 in 10.0 mi SSW 17.3 mph 24.2 mph N/A   Mostly Cloudy
3:14 PM 71.6 °F 60.8 °F 69% 29.76 in 10.0 mi SW 8.1 mph - N/A   Overcast
3:34 PM 73.4 °F 57.2 °F 57% 29.75 in 10.0 mi SSW 21.9 mph 31.1 mph N/A   Overcast
3:54 PM 71.6 °F 57.2 °F 60% 29.76 in 10.0 mi SSW 19.6 mph 38.0 mph N/A   Overcast
4:14 PM 69.8 °F 57.2 °F 64% 29.75 in 10.0 mi SW 13.8 mph 27.6 mph N/A   Overcast
4:34 PM 71.6 °F 59.0 °F 64% 29.74 in 10.0 mi SSW 16.1 mph 26.5 mph N/A   Mostly Cloudy
4:54 PM 71.6 °F 59.0 °F 64% 29.74 in 10.0 mi South 15.0 mph 25.3 mph N/A   Mostly Cloudy
5:14 PM 66.2 °F 59.0 °F 78% 29.73 in 10.0 mi SSW 18.4 mph 23.0 mph N/A   Scattered Clouds
5:34 PM 68.0 °F 60.8 °F 78% 29.74 in 10.0 mi SSW 21.9 mph - N/A   Scattered Clouds
5:54 PM 66.2 °F 60.8 °F 83% 29.74 in 10.0 mi SSW 16.1 mph 21.9 mph N/A   Mostly Cloudy
6:14 PM 68.0 °F 60.8 °F 78% 29.75 in 10.0 mi SSW 10.4 mph - N/A   Mostly Cloudy
6:34 PM 69.8 °F 60.8 °F 73% 29.74 in 10.0 mi SSW 11.5 mph - N/A   Mostly Cloudy
6:54 PM 66.2 °F 60.8 °F 83% 29.75 in 10.0 mi South 10.4 mph - N/A   Mostly Cloudy
7:14 PM 69.8 °F 60.8 °F 73% 29.74 in 10.0 mi South 6.9 mph - N/A   Mostly Cloudy
7:34 PM 66.2 °F 60.8 °F 83% 29.74 in 10.0 mi South 10.4 mph - N/A   Mostly Cloudy
7:54 PM 62.6 °F 59.0 °F 88% 29.73 in 10.0 mi South 8.1 mph - N/A   Scattered Clouds
8:14 PM 62.6 °F 57.2 °F 82% 29.73 in 7.0 mi South 9.2 mph - N/A   Clear
8:34 PM 62.6 °F 57.2 °F 82% 29.73 in 7.0 mi South 12.7 mph - N/A Rain Light Rain
8:54 PM 60.8 °F 55.4 °F 82% 29.73 in 10.0 mi South 15.0 mph 31.1 mph 0.04 in Rain Rain
9:14 PM 60.8 °F 53.6 °F 77% 29.74 in 10.0 mi South 13.8 mph - N/A Rain Light Rain
9:34 PM 60.8 °F 53.6 °F 77% 29.76 in 10.0 mi South 11.5 mph - N/A   Scattered Clouds
9:53 PM 57.2 °F 55.4 °F 94% 29.77 in 10.0 mi South 9.2 mph - N/A   Clear
10:14 PM 57.2 °F 53.6 °F 88% 29.78 in 10.0 mi South 5.8 mph - N/A   Scattered Clouds
10:34 PM 60.8 °F 55.4 °F 82% 29.78 in 10.0 mi South 11.5 mph - N/A   Scattered Clouds
10:54 PM 60.8 °F 57.2 °F 88% 29.78 in 10.0 mi SSW 12.7 mph - N/A   Scattered Clouds
11:14 PM 60.8 °F 55.4 °F 82% 29.79 in 10.0 mi SSW 10.4 mph - N/A   Mostly Cloudy
11:34 PM 62.6 °F 57.2 °F 82% 29.78 in 10.0 mi SW 8.1 mph - N/A   Mostly Cloudy
11:54 PM 64.4 °F 57.2 °F 77% 29.77 in 10.0 mi SW 8.1 mph 16.1 mph N/A   Overcast